CLNM LIPZ-LEXJ

Flight info

Callsign CLNM
Flight time 1h 20m
Altitude 36000
Route VIC DCT PUNSA/N0465F370 DCT VANAS DCT ETREK DCT TAKAT DCT FISTO DCT URUNA P181 SSN M190 BLV
Aircraft CL60/M-SBDE1E2E3FGHIJ4J5J7M3RWXYZ/LB1V1D1

Departure

Time 2026-04-25 10:07
Airport Venice Marco Polo Airport (LIPZ)

Arrival

Time 2026-04-25 11:27
Airport Seve Ballesteros-Santander Airport (LEXJ)
Time Latitude Longitude Altitude Speed Heading
2026-04-25 09:31 45.49908 12.33746 12 ft 0 kts 310°
2026-04-25 10:02 45.49910 12.33731 12 ft 2 kts 223°
2026-04-25 10:02 45.49889 12.33733 12 ft 3 kts 146°
2026-04-25 10:03 45.49864 12.33757 12 ft 5 kts 146°
2026-04-25 10:03 45.49825 12.33756 12 ft 10 kts 220°
2026-04-25 10:03 45.49741 12.33657 12 ft 10 kts 211°
2026-04-25 10:03 45.49693 12.33625 12 ft 8 kts 207°
2026-04-25 10:04 45.49636 12.33563 11 ft 7 kts 221°
2026-04-25 10:04 45.49613 12.33534 11 ft 5 kts 222°
2026-04-25 10:04 45.49570 12.33521 11 ft 8 kts 149°
2026-04-25 10:04 45.49522 12.33587 11 ft 10 kts 129°
2026-04-25 10:05 45.49467 12.33676 11 ft 13 kts 131°
2026-04-25 10:05 45.49446 12.33709 11 ft 2 kts 131°
2026-04-25 10:05 45.49423 12.33746 11 ft 4 kts 131°
2026-04-25 10:05 45.49412 12.33791 11 ft 5 kts 32°
2026-04-25 10:06 45.49440 12.33804 11 ft 0 kts 45°
2026-04-25 10:06 45.49609 12.34022 12 ft 75 kts 43°
2026-04-25 10:07 45.50207 12.34789 14 ft 153 kts 42°
2026-04-25 10:07 45.51089 12.35888 476 ft 179 kts 41°
2026-04-25 10:07 45.52000 12.37051 1390 ft 184 kts 43°
2026-04-25 10:07 45.52954 12.38278 2401 ft 192 kts 40°
2026-04-25 10:08 45.53770 12.39723 3487 ft 193 kts 72°
2026-04-25 10:08 45.53808 12.41559 4532 ft 193 kts 99°
2026-04-25 10:08 45.53577 12.43487 5373 ft 207 kts 99°
2026-04-25 10:08 45.53328 12.45569 6126 ft 222 kts 98°
2026-04-25 10:09 45.53077 12.47742 6875 ft 228 kts 98°
2026-04-25 10:09 45.52664 12.49923 7624 ft 230 kts 116°
2026-04-25 10:09 45.51692 12.51684 8368 ft 233 kts 142°
2026-04-25 10:09 45.50224 12.52702 8955 ft 242 kts 171°
2026-04-25 10:10 45.48534 12.52528 9602 ft 252 kts 200°
2026-04-25 10:10 45.46972 12.51364 10261 ft 258 kts 221°
2026-04-25 10:10 45.45838 12.49385 10899 ft 266 kts 243°
2026-04-25 10:10 45.45216 12.46820 11443 ft 287 kts 263°
2026-04-25 10:11 45.45340 12.43923 11958 ft 308 kts 286°
2026-04-25 10:11 45.46053 12.40919 12463 ft 329 kts 289°
2026-04-25 10:11 45.46826 12.37787 12957 ft 348 kts 289°
2026-04-25 10:11 45.47641 12.34456 13645 ft 359 kts 289°
2026-04-25 10:12 45.48457 12.31112 14489 ft 364 kts 289°
2026-04-25 10:12 45.49294 12.27677 15346 ft 368 kts 288°
2026-04-25 10:12 45.50973 12.20771 17017 ft 375 kts 288°
2026-04-25 10:13 45.51823 12.17269 17816 ft 378 kts 288°
2026-04-25 10:13 45.52683 12.13718 18578 ft 382 kts 288°
2026-04-25 10:13 45.53545 12.10148 19285 ft 385 kts 288°
2026-04-25 10:13 45.54420 12.06525 19979 ft 389 kts 288°
2026-04-25 10:14 45.55301 12.02867 20646 ft 393 kts 288°
2026-04-25 10:14 45.56189 11.99176 21291 ft 396 kts 287°
2026-04-25 10:14 45.57097 11.95398 21920 ft 400 kts 287°
2026-04-25 10:14 45.58057 11.91392 22560 ft 404 kts 287°
2026-04-25 10:15 45.59026 11.87342 23180 ft 408 kts 287°
2026-04-25 10:15 45.59998 11.83269 23786 ft 411 kts 287°
2026-04-25 10:15 45.60965 11.79217 24407 ft 413 kts 287°
2026-04-25 10:15 45.61891 11.75323 24948 ft 416 kts 288°
2026-04-25 10:16 45.62817 11.71424 25460 ft 419 kts 287°
2026-04-25 10:16 45.63725 11.67476 25946 ft 421 kts 284°
2026-04-25 10:16 45.64358 11.63323 26410 ft 424 kts 280°
2026-04-25 10:16 45.64915 11.59196 26861 ft 426 kts 280°
2026-04-25 10:17 45.65478 11.55051 27274 ft 429 kts 280°
2026-04-25 10:17 45.66046 11.50863 27657 ft 432 kts 280°
2026-04-25 10:17 45.66621 11.46622 28054 ft 434 kts 280°
2026-04-25 10:17 45.67196 11.42362 28459 ft 435 kts 280°
2026-04-25 10:18 45.67767 11.38130 28831 ft 437 kts 280°
2026-04-25 10:18 45.68345 11.33830 29147 ft 440 kts 279°
2026-04-25 10:18 45.68923 11.29522 29478 ft 442 kts 279°
2026-04-25 10:18 45.69505 11.25173 29876 ft 442 kts 279°
2026-04-25 10:19 45.70075 11.20909 30311 ft 441 kts 279°
2026-04-25 10:19 45.70641 11.16658 30768 ft 438 kts 279°
2026-04-25 10:19 45.71209 11.12383 31233 ft 436 kts 279°
2026-04-25 10:19 45.71773 11.08124 31675 ft 434 kts 279°
2026-04-25 10:20 45.72331 11.03909 32093 ft 432 kts 279°
2026-04-25 10:20 45.72886 10.99699 32472 ft 431 kts 279°
2026-04-25 10:20 45.73437 10.95500 32816 ft 430 kts 279°
2026-04-25 10:20 45.73982 10.91342 33147 ft 429 kts 279°
2026-04-25 10:21 45.74529 10.87158 33475 ft 428 kts 279°
2026-04-25 10:21 45.75077 10.82945 33791 ft 427 kts 279°
2026-04-25 10:21 45.75619 10.78773 34106 ft 426 kts 279°
2026-04-25 10:21 45.76169 10.74531 34406 ft 425 kts 279°
2026-04-25 10:22 45.76714 10.70303 34742 ft 424 kts 279°
2026-04-25 10:22 45.77077 10.67492 34958 ft 424 kts 279°
2026-04-25 10:22 45.77788 10.61948 35361 ft 423 kts 279°
2026-04-25 10:22 45.78317 10.57820 35667 ft 422 kts 279°
2026-04-25 10:23 45.78842 10.53706 35928 ft 421 kts 279°
2026-04-25 10:23 45.79367 10.49577 36099 ft 423 kts 279°
2026-04-25 10:23 45.79877 10.45550 36089 ft 427 kts 279°
2026-04-25 10:24 45.80363 10.41700 36100 ft 431 kts 279°
2026-04-25 10:24 45.81034 10.36369 36099 ft 436 kts 279°
2026-04-25 10:25 45.82117 10.27725 36101 ft 442 kts 278°
2026-04-25 10:25 45.83206 10.18981 36104 ft 445 kts 278°
2026-04-25 10:26 45.84282 10.10283 36118 ft 445 kts 278°
2026-04-25 10:26 45.85370 10.01434 36131 ft 444 kts 278°
2026-04-25 10:27 45.86431 9.92736 36119 ft 444 kts 278°
2026-04-25 10:27 45.87484 9.84054 36100 ft 443 kts 278°
2026-04-25 10:28 45.88536 9.75325 36088 ft 442 kts 278°
2026-04-25 10:28 45.89587 9.66538 36106 ft 441 kts 278°
2026-04-25 10:29 45.90618 9.57863 36116 ft 441 kts 278°
2026-04-25 10:29 45.91641 9.49189 36128 ft 441 kts 278°
2026-04-25 10:30 45.92661 9.40493 36110 ft 441 kts 278°
2026-04-25 10:30 45.93670 9.31820 36087 ft 441 kts 278°
2026-04-25 10:31 45.94676 9.23119 36054 ft 441 kts 278°
2026-04-25 10:31 45.96468 9.07468 36059 ft 440 kts 278°
2026-04-25 10:32 45.98346 8.90836 36058 ft 440 kts 278°
2026-04-25 10:32 46.00192 8.74272 36069 ft 439 kts 278°
2026-04-25 10:33 46.01973 8.58068 36136 ft 438 kts 278°
2026-04-25 10:33 46.03760 8.41588 36184 ft 440 kts 278°
2026-04-25 10:34 46.05453 8.25750 36177 ft 439 kts 278°
2026-04-25 10:34 46.06667 8.09132 36217 ft 439 kts 266°
2026-04-25 10:34 46.05644 8.00859 36228 ft 441 kts 254°
2026-04-25 10:35 46.03267 7.93094 36560 ft 443 kts 241°
2026-04-25 10:35 46.00080 7.86244 37235 ft 437 kts 238°
2026-04-25 10:35 45.96730 7.79230 37224 ft 443 kts 238°
2026-04-25 10:36 45.90006 7.65214 37218 ft 447 kts 238°
2026-04-25 10:36 45.83314 7.51343 37184 ft 445 kts 238°
2026-04-25 10:37 45.76555 7.37400 37156 ft 447 kts 238°
2026-04-25 10:37 45.69971 7.23889 37209 ft 447 kts 237°
2026-04-25 10:38 45.63245 7.10153 37212 ft 448 kts 237°
2026-04-25 10:38 45.56611 6.96672 37194 ft 449 kts 237°
2026-04-25 10:39 45.49730 6.82757 37164 ft 449 kts 237°
2026-04-25 10:39 45.44877 6.67511 37194 ft 444 kts 260°
2026-04-25 10:40 45.42919 6.51161 37178 ft 445 kts 261°
2026-04-25 10:40 45.40954 6.34911 37185 ft 445 kts 261°
2026-04-25 10:41 45.38947 6.18528 37182 ft 446 kts 261°
2026-04-25 10:41 45.36957 6.02490 37164 ft 445 kts 261°
2026-04-25 10:42 45.34883 5.85980 37164 ft 446 kts 261°
2026-04-25 10:42 45.32772 5.69385 37139 ft 447 kts 261°
2026-04-25 10:43 45.30638 5.52802 37108 ft 447 kts 261°
2026-04-25 10:43 45.28471 5.36173 37113 ft 448 kts 261°
2026-04-25 10:44 45.26404 5.20490 37115 ft 449 kts 260°
2026-04-25 10:44 45.24265 5.04433 37096 ft 450 kts 260°
2026-04-25 10:45 45.22025 4.87822 37098 ft 451 kts 260°
2026-04-25 10:45 45.19759 4.71201 37110 ft 450 kts 259°
2026-04-25 10:46 45.16369 4.54767 37128 ft 451 kts 250°
2026-04-25 10:46 45.12215 4.39178 37143 ft 451 kts 250°
2026-04-25 10:47 45.08153 4.24014 37129 ft 452 kts 250°
2026-04-25 10:47 45.03870 4.08117 37150 ft 452 kts 250°
2026-04-25 10:48 44.99576 3.92276 37138 ft 452 kts 250°
2026-04-25 10:48 44.95318 3.76669 37163 ft 452 kts 250°
2026-04-25 10:49 44.91087 3.61255 37151 ft 452 kts 250°
2026-04-25 10:49 44.87025 3.46548 37162 ft 451 kts 250°
2026-04-25 10:50 44.83087 3.32372 37155 ft 451 kts 249°
2026-04-25 10:50 44.78892 3.17362 37159 ft 451 kts 249°
2026-04-25 10:51 44.74572 3.02000 37161 ft 451 kts 249°
2026-04-25 10:51 44.70180 2.86480 37155 ft 451 kts 249°
2026-04-25 10:52 44.65830 2.71202 37145 ft 451 kts 249°
2026-04-25 10:52 44.62129 2.55457 37147 ft 450 kts 261°
2026-04-25 10:53 44.60260 2.39243 37147 ft 450 kts 261°
2026-04-25 10:53 44.58453 2.23776 37137 ft 451 kts 260°
2026-04-25 10:54 44.56561 2.07783 37147 ft 450 kts 260°
2026-04-25 10:54 44.54640 1.91725 37140 ft 450 kts 260°
2026-04-25 10:55 44.52699 1.75695 37148 ft 449 kts 260°
2026-04-25 10:55 44.50706 1.59436 37142 ft 449 kts 260°
2026-04-25 10:56 44.48690 1.43189 37141 ft 449 kts 260°
2026-04-25 10:56 44.46716 1.27475 37138 ft 449 kts 259°
2026-04-25 10:56 44.45194 1.20169 37139 ft 448 kts 246°
2026-04-25 10:57 44.42637 1.12841 37138 ft 448 kts 244°
2026-04-25 10:57 44.37457 0.98295 37141 ft 448 kts 244°
2026-04-25 10:58 44.32216 0.83641 37144 ft 448 kts 244°
2026-04-25 10:58 44.27048 0.69259 37151 ft 447 kts 244°
2026-04-25 10:59 44.21822 0.54788 37160 ft 447 kts 244°
2026-04-25 10:59 44.19342 0.47948 36763 ft 447 kts 244°
2026-04-25 10:59 44.16821 0.41011 37095 ft 445 kts 244°
2026-04-25 11:00 44.11905 0.27534 37154 ft 452 kts 243°
2026-04-25 11:00 44.06650 0.13197 37158 ft 451 kts 243°
2026-04-25 11:01 44.01295 -0.01337 37157 ft 450 kts 243°
2026-04-25 11:01 43.95980 -0.15686 37157 ft 450 kts 243°
2026-04-25 11:02 43.90640 -0.30030 37158 ft 450 kts 243°
2026-04-25 11:02 43.85439 -0.43930 37163 ft 450 kts 243°
2026-04-25 11:03 43.80209 -0.57839 37158 ft 451 kts 243°
2026-04-25 11:03 43.74929 -0.71810 37157 ft 451 kts 242°
2026-04-25 11:04 43.69527 -0.86034 37158 ft 451 kts 242°
2026-04-25 11:04 43.64190 -1.00015 37162 ft 452 kts 242°
2026-04-25 11:05 43.59632 -1.11902 37168 ft 451 kts 242°
2026-04-25 11:05 43.56060 -1.21181 37161 ft 451 kts 242°
2026-04-25 11:06 43.53118 -1.28803 37148 ft 452 kts 242°
2026-04-25 11:06 43.51635 -1.32637 36732 ft 456 kts 242°
2026-04-25 11:06 43.50144 -1.36486 36258 ft 450 kts 242°
2026-04-25 11:06 43.48676 -1.40271 35669 ft 447 kts 242°
2026-04-25 11:07 43.47212 -1.44040 35098 ft 444 kts 242°
2026-04-25 11:07 43.45746 -1.47809 34479 ft 442 kts 241°
2026-04-25 11:07 43.44303 -1.51517 33922 ft 442 kts 242°
2026-04-25 11:07 43.42856 -1.55228 33326 ft 444 kts 242°
2026-04-25 11:08 43.41393 -1.58972 32740 ft 445 kts 242°
2026-04-25 11:08 43.39923 -1.62732 32150 ft 447 kts 241°
2026-04-25 11:08 43.38495 -1.66382 31567 ft 448 kts 241°
2026-04-25 11:08 43.36997 -1.70211 30964 ft 450 kts 241°
2026-04-25 11:09 43.35504 -1.73931 30378 ft 451 kts 238°
2026-04-25 11:09 43.33806 -1.77544 29787 ft 448 kts 236°
2026-04-25 11:09 43.32235 -1.81200 29182 ft 445 kts 245°
2026-04-25 11:09 43.31306 -1.85293 28556 ft 442 kts 259°
2026-04-25 11:10 43.31098 -1.89616 27913 ft 440 kts 269°
2026-04-25 11:10 43.31096 -1.92494 27494 ft 437 kts 269°
2026-04-25 11:10 43.31083 -1.98152 26719 ft 432 kts 269°
2026-04-25 11:10 43.31070 -2.02352 26143 ft 429 kts 269°
2026-04-25 11:11 43.31056 -2.06461 25562 ft 426 kts 269°
2026-04-25 11:11 43.31041 -2.10496 25013 ft 422 kts 269°
2026-04-25 11:11 43.31025 -2.14526 24435 ft 419 kts 269°
2026-04-25 11:11 43.31007 -2.18508 23888 ft 416 kts 269°
2026-04-25 11:12 43.30987 -2.22481 23340 ft 413 kts 269°
2026-04-25 11:12 43.30967 -2.26425 22779 ft 409 kts 269°
2026-04-25 11:12 43.30946 -2.30367 22241 ft 407 kts 269°
2026-04-25 11:12 43.30923 -2.34365 21690 ft 404 kts 269°
2026-04-25 11:13 43.30899 -2.38286 21129 ft 401 kts 269°
2026-04-25 11:13 43.30873 -2.42102 20615 ft 399 kts 269°
2026-04-25 11:13 43.30847 -2.45934 20076 ft 397 kts 269°
2026-04-25 11:13 43.30821 -2.49680 19566 ft 394 kts 269°
2026-04-25 11:14 43.30792 -2.53415 19049 ft 392 kts 269°
2026-04-25 11:14 43.30763 -2.57160 18511 ft 388 kts 269°
2026-04-25 11:14 43.30733 -2.60832 18007 ft 387 kts 269°
2026-04-25 11:14 43.30702 -2.64534 17497 ft 385 kts 269°
2026-04-25 11:15 43.30669 -2.68179 16978 ft 381 kts 269°
2026-04-25 11:15 43.30637 -2.71785 16510 ft 378 kts 269°
2026-04-25 11:15 43.30603 -2.75385 15990 ft 376 kts 269°
2026-04-25 11:15 43.30568 -2.78959 15490 ft 372 kts 269°
2026-04-25 11:16 43.30497 -2.85962 14501 ft 367 kts 269°
2026-04-25 11:16 43.30460 -2.89465 13797 ft 365 kts 269°
2026-04-25 11:16 43.30418 -2.92903 13379 ft 354 kts 268°
2026-04-25 11:17 43.30333 -2.96217 12898 ft 346 kts 267°
2026-04-25 11:17 43.30239 -2.99509 12436 ft 339 kts 267°
2026-04-25 11:17 43.30148 -3.02660 11991 ft 332 kts 268°
2026-04-25 11:17 43.30057 -3.05826 11551 ft 325 kts 268°
2026-04-25 11:18 43.29969 -3.08868 11133 ft 318 kts 268°
2026-04-25 11:18 43.29881 -3.11873 10700 ft 313 kts 268°
2026-04-25 11:18 43.29794 -3.14834 10297 ft 307 kts 268°
2026-04-25 11:18 43.29708 -3.17718 9899 ft 302 kts 268°
2026-04-25 11:19 43.29623 -3.20566 9494 ft 298 kts 268°
2026-04-25 11:19 43.29537 -3.23391 9103 ft 292 kts 268°
2026-04-25 11:19 43.29453 -3.26145 8723 ft 289 kts 268°
2026-04-25 11:19 43.29370 -3.28867 8320 ft 286 kts 268°
2026-04-25 11:20 43.29409 -3.31653 7198 ft 303 kts 279°
2026-04-25 11:20 43.29945 -3.34374 6971 ft 279 kts 290°
2026-04-25 11:20 43.30577 -3.36980 6368 ft 286 kts 290°
2026-04-25 11:20 43.31223 -3.39452 6245 ft 263 kts 291°
2026-04-25 11:21 43.31853 -3.41802 5681 ft 261 kts 292°
2026-04-25 11:21 43.32458 -3.44035 5521 ft 245 kts 292°
2026-04-25 11:21 43.33058 -3.46244 5097 ft 246 kts 292°
2026-04-25 11:21 43.33645 -3.48407 4830 ft 242 kts 292°
2026-04-25 11:22 43.34232 -3.50568 4487 ft 240 kts 292°
2026-04-25 11:22 43.34618 -3.51990 4287 ft 238 kts 292°
2026-04-25 11:22 43.35380 -3.54807 3869 ft 235 kts 292°
2026-04-25 11:22 43.35955 -3.56929 3559 ft 232 kts 292°
2026-04-25 11:23 43.36511 -3.58983 3221 ft 229 kts 292°
2026-04-25 11:23 43.37051 -3.60984 2955 ft 220 kts 293°
2026-04-25 11:23 43.37563 -3.62883 2693 ft 206 kts 293°
2026-04-25 11:23 43.38048 -3.64686 2448 ft 196 kts 293°
2026-04-25 11:24 43.38500 -3.66359 2182 ft 188 kts 292°
2026-04-25 11:24 43.38941 -3.67999 1950 ft 177 kts 292°
2026-04-25 11:24 43.39348 -3.69515 1727 ft 165 kts 292°
2026-04-25 11:24 43.39737 -3.70960 1502 ft 159 kts 292°
2026-04-25 11:25 43.40118 -3.72369 1290 ft 154 kts 291°
2026-04-25 11:25 43.40467 -3.73669 1081 ft 133 kts 291°
2026-04-25 11:25 43.40785 -3.74857 939 ft 135 kts 293°
2026-04-25 11:25 43.41112 -3.76066 749 ft 134 kts 292°
2026-04-25 11:26 43.41433 -3.77259 584 ft 134 kts 291°
2026-04-25 11:26 43.41740 -3.78475 422 ft 132 kts 291°
2026-04-25 11:26 43.42063 -3.79667 229 ft 133 kts 290°
2026-04-25 11:26 43.42389 -3.80827 64 ft 130 kts 289°
2026-04-25 11:27 43.42669 -3.81908 20 ft 107 kts 287°
2026-04-25 11:27 43.42885 -3.82692 19 ft 50 kts 291°
2026-04-25 11:27 43.42947 -3.82919 18 ft 16 kts 270°
2026-04-25 11:27 43.42911 -3.83014 18 ft 18 kts 226°
2026-04-25 11:28 43.42781 -3.82924 19 ft 21 kts 109°
2026-04-25 11:28 43.42730 -3.82723 19 ft 23 kts 109°
2026-04-25 11:28 43.42674 -3.82511 19 ft 21 kts 110°
2026-04-25 11:28 43.42633 -3.82352 19 ft 12 kts 109°
2026-04-25 11:29 43.42587 -3.82299 19 ft 11 kts 179°
2026-04-25 11:29 43.42537 -3.82327 19 ft 6 kts 212°
2026-04-25 11:29 43.42530 -3.82380 19 ft 7 kts 253°
2026-04-25 11:29 43.42497 -3.82455 19 ft 10 kts 219°
2026-04-25 11:30 43.42478 -3.82507 19 ft 8 kts 245°
2026-04-25 11:30 43.42478 -3.82586 19 ft 8 kts 287°
2026-04-25 11:30 43.42472 -3.82649 19 ft 3 kts 197°
2026-04-25 11:30 43.42454 -3.82655 19 ft 2 kts 200°
2026-04-25 11:31 43.42453 -3.82656 19 ft 0 kts 201°